Location: Moscow
(55.7500°N, 37.5830°E)
Time: 19:40:56
(UTC+03:00)

Transit 2A Rocket - Pass Details

Date: 07 December 2021
Orbit: 584 x 917 km, 66.7° (Epoch: 23 January)

Event Time Altitude Azimuth Distance (km) Brightness Sun altitude
Rises 07:17:55 0° 195° (SSW) 3,366 8.5 -11.0°
Reaches altitude 10° 07:20:24 10° 189° (S) 2,479 7.9 -10.7°
Maximum altitude 07:25:50 43° 119° (ESE) 1,227 6.7 -10.0°
Drops below altitude 10° 07:31:34 10° 50° (NE) 2,614 8.1 -9.3°
Sets 07:34:14 0° 44° (NE) 3,567 8.7 -8.9°
